AirNav   Pilot Hours Calculator
 
 558 users online  

MU05 Arch Heliport
St Louis, Missouri, USA

GOING TO ST LOUIS?


FAA INFORMATION EFFECTIVE 08 OCTOBER 2020

Location

FAA Identifier: MU05
Lat/Long: 38-37-30.8800N 090-12-47.7600W
38-37.514667N 090-12.796000W
38.6252444,-90.2132667
(estimated)
Elevation: 500 ft. / 152 m (estimated)
Variation: 01E (1990)
Time zone: UTC -5 (UTC -6 during Standard Time)
Zip code: 63104

Heliport Operations

Heliport use: Private use, MEDICAL USE.
Activation date: 12/1993
Control tower: no
ARTCC: KANSAS CITY CENTER
FSS: SAINT LOUIS FLIGHT SERVICE STATION
Attendance: CONTINUOUS
Wind indicator: yes
Segmented circle: no

Heliport Communications

WX ASOS at CPS (4 nm SE): PHONE 618-332-0001
WX ASOS at STL (10 nm NW): 125.025 (314-890-4790)
WX AWOS-3 at ALN (18 nm NE): 128.0 (618-259-7231)

Nearby radio navigation aids

VOR radial/distance  VOR name  Freq  Var
TOYr240/15.4TROY VORTAC116.0004E
STLr137/18.9ST LOUIS VORTAC117.4001E
FTZr092/35.8FORISTELL VORTAC110.8005E

 
NDB name  Hdg/Dist  Freq  Var  ID
ACORE311/9.635000ECP -.-. .--.
CIVIC MEMORIAL206/17.626301WCVM -.-. ...- --

Heliport Services

Runway Information

Helipad H1

Dimensions: 30 x 30 ft. / 9 x 9 m
Surface: concrete
Latitude: 38-37.514667N
Longitude: 090-12.796000W
Elevation: 500.0 ft.
Traffic pattern: leftleft

Heliport Ownership and Management from official FAA records

Ownership: Privately-owned
Owner: ARCH
2207 SCOTT AVE
ST LOUIS, MO 63103
Phone 314-640-3354
Manager: ROBERT GROVES
2207 SCOTT AVE
ST LOUIS, MO 63103
Phone (314) 486-2783

Additional Remarks

A52-H1 45' BLDG 250' SW.
FOR CD CTC ST LOUIS APCH AT 314-890-1018.

Instrument Procedures

There are no published instrument procedures at MU05.

Some nearby airports with instrument procedures:

KCPS - St Louis Downtown Airport (4 nm SE)
KSTL - St Louis Lambert International Airport (10 nm NW)
1H0 - Creve Coeur Airport (15 nm NW)
KALN - St Louis Regional Airport (18 nm NE)
KBLV - Scott Air Force Base/MidAmerica Airport (18 nm E)
 
Loc | Ops | Rwys | IFR | FBO | Links
Com | Nav | Svcs | Stats | Notes
Area around MU05 (Arch Heliport)
 
Road maps at: MapQuest Bing Google
 
Aerial photo
No photo
 
Sectional chart

 
Airport distance calculator
Flying to Arch Heliport? Find the distance to fly.

From to MU05

Sunrise and sunset
Times for 27-Oct-2020
 Local
(UTC-5)
 Zulu
(UTC)
Morning civil twilight06:5711:57
Sunrise07:2412:24
Sunset18:0523:05
Evening civil twilight18:3223:32

Current date and time
Zulu (UTC)  27-Oct-2020 10:58:03
Local (UTC-5)  27-Oct-2020 05:58:03
 
METAR
KCPS 
5nm SE 
271053Z AUTO 01008KT 5SM BR OVC005 03/03 A3030 RMK AO2 SLP265 T00280028
KSTL 
10nm NW 
271051Z 01008KT 5SM -DZ BR OVC007 03/01 A3031 RMK AO2 CIG 005V010 SLP271 P0000 T00280006
KALN 
18nm NE 
271035Z AUTO 01004KT 5SM BR OVC005 02/02 A3030 RMK AO2 T00200020
KBLV 
19nm E 
271011Z AUTO 01007KT 10SM OVC006 03/03 A3028 RMK AO2 CIG 005 RWY14L CIG 005 RWY32L SLP261 $
TAF
KCPS 
5nm SE 
270520Z 2706/2806 01006KT 3SM -RA BR OVC007 FM271200 36007KT P6SM OVC007 FM271800 36005KT P6SM OVC012 FM272200 VRB03KT P6SM OVC020
KSTL 
10nm NW 
270259Z 2703/2806 02007KT 4SM -DZ BR OVC006 FM270600 01006KT 3SM -RA BR OVC008 FM271200 01006KT P6SM OVC010 FM272200 34004KT P6SM OVC020
KBLV 
19nm E 
270800Z 2708/2814 36009KT 8000 -DZ BR OVC005 QNH3027INS BECMG 2711/2712 36009KT 9999 NSW OVC009 QNH3027INS BECMG 2717/2718 VRB06KT 9999 OVC018 QNH3013INS TX08/2721Z TN02/2710Z
NOTAMs
Click for the latest NOTAMs
NOTAMs are issued by the DoD/FAA and will open in a separate window not controlled by AirNav.

 

 
 

Would you like to see your business listed on this page?

 If your business provides an interesting product or service to pilots, flight crews, aircraft, or users of the Arch Heliport, you should consider listing it here.  To start the listing process, click on the button below
 
Add a business
 

Other Pages about Arch Heliport

members.aol.com/...
 
Update a link
 
Copyright © AirNav, LLC. All rights reserved. Privacy Policy  Contact